• In Hungary
  • List of Countries
  • For 7 days
  • Water Temperature
  • Satellite Maps
  • Weather Map
  • News
  • Weather Widgets
  • user-avatar
    Login

    Hourly Weather Akka

    Today, 17 January, Wednesday

    Time Temperature Precipitation Wind Pressure Humidity
    00:00 +14°C° 0 mm 2 mps 764 mmHg 75%
    01:00 +13°C° 0 mm 3 mps 763 mmHg 76%
    02:00 +13°C° 0 mm 3 mps 763 mmHg 77%
    03:00 +13°C° 0.1 mm 3 mps 763 mmHg 78%
    04:00 +12°C° 0.1 mm 3 mps 762 mmHg 79%
    05:00 +12°C° 0.1 mm 3 mps 762 mmHg 80%
    06:00 +13°C° 0.2 mm 3 mps 762 mmHg 79%
    07:00 +13°C° 0.2 mm 3 mps 762 mmHg 78%
    08:00 +13°C° 0.2 mm 3 mps 762 mmHg 77%
    09:00 +14°C° 0.6 mm 4 mps 762 mmHg 75%
    10:00 +15°C° 0.6 mm 5 mps 762 mmHg 73%
    11:00 +15°C° 0.6 mm 5 mps 762 mmHg 71%
    12:00 +15°C° 0.6 mm 5 mps 761 mmHg 72%
    13:00 +16°C° 0.6 mm 5 mps 761 mmHg 73%
    14:00 +16°C° 0.6 mm 5 mps 760 mmHg 74%
    15:00 +15°C° 0.2 mm 5 mps 760 mmHg 76%
    16:00 +15°C° 0.2 mm 4 mps 761 mmHg 78%
    17:00 +14°C° 0.2 mm 4 mps 761 mmHg 81%
    18:00 +14°C° 0.2 mm 4 mps 761 mmHg 82%
    19:00 +14°C° 0.2 mm 4 mps 761 mmHg 82%
    20:00 +14°C° 0.2 mm 3 mps 761 mmHg 83%
    21:00 +13°C° 0.2 mm 4 mps 761 mmHg 84%
    22:00 +13°C° 0.2 mm 4 mps 761 mmHg 84%
    23:00 +13°C° 0.2 mm 4 mps 761 mmHg 85%

    Tomorrow, 18 January, Thursday

    Time Temperature Precipitation Wind Pressure Humidity
    00:00 +13°C° 0.3 mm 4 mps 761 mmHg 85%
    01:00 +13°C° 0.3 mm 4 mps 760 mmHg 86%
    02:00 +13°C° 0.3 mm 4 mps 760 mmHg 86%
    03:00 +13°C° 0.5 mm 5 mps 760 mmHg 86%
    04:00 +13°C° 0.5 mm 6 mps 760 mmHg 86%
    05:00 +13°C° 0.5 mm 6 mps 759 mmHg 86%
    06:00 +12°C° 0.3 mm 7 mps 759 mmHg 86%
    07:00 +14°C° 0.3 mm 7 mps 759 mmHg 85%
    08:00 +14°C° 0.3 mm 7 mps 759 mmHg 85%
    09:00 +13°C° 0.6 mm 8 mps 759 mmHg 82%
    10:00 +15°C° 0.6 mm 9 mps 758 mmHg 80%
    11:00 +14°C° 0.6 mm 10 mps 758 mmHg 78%
    12:00 +16°C° 0.2 mm 11 mps 757 mmHg 74%
    13:00 +16°C° 0.2 mm 11 mps 757 mmHg 69%
    14:00 +17°C° 0.2 mm 12 mps 756 mmHg 65%
    15:00 +15°C° 0.2 mm 12 mps 755 mmHg 67%
    16:00 +16°C° 0.2 mm 11 mps 755 mmHg 69%
    17:00 +14°C° 0.2 mm 11 mps 754 mmHg 71%
    18:00 +14°C° 2.3 mm 12 mps 754 mmHg 73%
    19:00 +14°C° 2.3 mm 12 mps 753 mmHg 74%
    20:00 +14°C° 2.3 mm 13 mps 753 mmHg 75%
    21:00 +13°C° 2.6 mm 14 mps 753 mmHg 77%
    22:00 +12°C° 2.6 mm 14 mps 753 mmHg 80%
    23:00 +11°C° 2.6 mm 15 mps 753 mmHg 82%

    Day after tomorrow, 19 January, Friday

    Time Temperature Precipitation Wind Pressure Humidity
    00:00 +10°C° 0.6 mm 15 mps 753 mmHg 78%
    01:00 +9°C° 0.6 mm 15 mps 753 mmHg 74%
    02:00 +9°C° 0.6 mm 14 mps 753 mmHg 69%
    03:00 +9°C° 1.1 mm 14 mps 753 mmHg 70%
    04:00 +9°C° 1.1 mm 14 mps 754 mmHg 71%
    05:00 +9°C° 1.1 mm 14 mps 754 mmHg 71%
    06:00 +9°C° 0.6 mm 13 mps 755 mmHg 70%
    07:00 +9°C° 0.6 mm 13 mps 756 mmHg 68%
    08:00 +9°C° 0.6 mm 12 mps 757 mmHg 67%
    09:00 +11°C° 0.3 mm 11 mps 757 mmHg 64%
    10:00 +11°C° 0.3 mm 11 mps 758 mmHg 61%
    11:00 +12°C° 0.3 mm 11 mps 759 mmHg 58%
    12:00 +12°C° 0.1 mm 11 mps 759 mmHg 57%
    13:00 +12°C° 0.1 mm 10 mps 760 mmHg 57%
    14:00 +12°C° 0.1 mm 9 mps 760 mmHg 56%
    15:00 +12°C° 0 mm 8 mps 760 mmHg 58%
    16:00 +11°C° 0 mm 7 mps 761 mmHg 61%
    17:00 +10°C° 0 mm 6 mps 762 mmHg 64%
    18:00 +10°C° 0 mm 6 mps 762 mmHg 65%
    19:00 +10°C° 0 mm 5 mps 763 mmHg 66%
    20:00 +10°C° 0 mm 4 mps 764 mmHg 66%
    21:00 +10°C° 0 mm 4 mps 764 mmHg 67%
    22:00 +10°C° 0 mm 4 mps 765 mmHg 67%
    23:00 +10°C° 0 mm 3 mps 765 mmHg 67%

    20 January, Saturday

    Time Temperature Precipitation Wind Pressure Humidity
    00:00 +9°C° 0 mm 3 mps 765 mmHg 66%
    01:00 +9°C° 0 mm 3 mps 765 mmHg 66%
    02:00 +9°C° 0 mm 3 mps 766 mmHg 65%
    03:00 +9°C° 0 mm 3 mps 766 mmHg 66%
    04:00 +9°C° 0 mm 2 mps 766 mmHg 66%
    05:00 +9°C° 0 mm 2 mps 766 mmHg 66%
    06:00 +10°C° 0 mm 3 mps 766 mmHg 67%
    07:00 +10°C° 0 mm 3 mps 767 mmHg 68%
    08:00 +11°C° 0 mm 3 mps 767 mmHg 68%
    09:00 +13°C° 0 mm 3 mps 767 mmHg 67%
    10:00 +14°C° 0 mm 3 mps 767 mmHg 65%
    11:00 +17°C° 0 mm 3 mps 767 mmHg 63%
    12:00 +17°C° 0 mm 3 mps 767 mmHg 63%
    13:00 +17°C° 0 mm 3 mps 767 mmHg 62%
    14:00 +18°C° 0 mm 3 mps 766 mmHg 62%
    15:00 +17°C° 0 mm 2 mps 766 mmHg 66%
    16:00 +16°C° 0 mm 2 mps 766 mmHg 71%
    17:00 +15°C° 0 mm 1 mps 766 mmHg 75%
    18:00 +14°C° 0 mm 1 mps 767 mmHg 76%
    19:00 +14°C° 0 mm 1 mps 767 mmHg 78%
    20:00 +13°C° 0 mm 1 mps 767 mmHg 79%
    21:00 +13°C° 0 mm 1 mps 767 mmHg 80%
    22:00 +13°C° 0 mm 1 mps 767 mmHg 80%
    23:00 +13°C° 0 mm 2 mps 767 mmHg 81%

    21 January, Sunday

    Time Temperature Precipitation Wind Pressure Humidity
    00:00 +13°C° 0 mm 2 mps 767 mmHg 80%
    01:00 +12°C° 0 mm 2 mps 766 mmHg 79%
    02:00 +11°C° 0 mm 3 mps 766 mmHg 78%
    03:00 +11°C° 0 mm 3 mps 766 mmHg 75%
    04:00 +11°C° 0 mm 3 mps 765 mmHg 73%
    05:00 +11°C° 0 mm 4 mps 765 mmHg 70%
    06:00 +12°C° 0 mm 4 mps 765 mmHg 68%
    07:00 +12°C° 0 mm 4 mps 765 mmHg 65%
    08:00 +12°C° 0 mm 5 mps 765 mmHg 63%
    09:00 +14°C° 0 mm 5 mps 764 mmHg 56%
    10:00 +16°C° 0 mm 6 mps 764 mmHg 49%
    11:00 +19°C° 0 mm 6 mps 763 mmHg 42%
    12:00 +20°C° 0 mm 6 mps 763 mmHg 40%
    13:00 +20°C° 0 mm 5 mps 762 mmHg 38%
    14:00 +21°C° 0 mm 5 mps 761 mmHg 36%
    15:00 +20°C° 0 mm 5 mps 761 mmHg 38%
    16:00 +19°C° 0 mm 5 mps 760 mmHg 40%
    17:00 +16°C° 0 mm 5 mps 760 mmHg 42%
    18:00 +16°C° 0 mm 5 mps 760 mmHg 41%
    19:00 +15°C° 0 mm 5 mps 760 mmHg 41%
    20:00 +15°C° 0 mm 5 mps 760 mmHg 40%
    21:00 +14°C° 0 mm 6 mps 759 mmHg 40%
    22:00 +14°C° 0 mm 6 mps 759 mmHg 40%
    23:00 +14°C° 0 mm 6 mps 758 mmHg 39%

    22 January, Monday

    Time Temperature Precipitation Wind Pressure Humidity
    00:00 +14°C° 0 mm 6 mps 758 mmHg 38%
    01:00 +13°C° 0 mm 6 mps 758 mmHg 37%
    02:00 +13°C° 0 mm 5 mps 757 mmHg 35%
    03:00 +13°C° 0 mm 5 mps 757 mmHg 35%
    04:00 +13°C° 0 mm 5 mps 757 mmHg 35%
    05:00 +13°C° 0 mm 6 mps 757 mmHg 35%
    06:00 +13°C° 0 mm 6 mps 757 mmHg 37%
    07:00 +14°C° 0 mm 6 mps 757 mmHg 40%
    08:00 +14°C° 0 mm 6 mps 757 mmHg 42%
    09:00 +16°C° 0 mm 6 mps 757 mmHg 42%
    10:00 +18°C° 0 mm 7 mps 757 mmHg 42%
    11:00 +20°C° 0 mm 7 mps 756 mmHg 42%
    12:00 +20°C° 0 mm 8 mps 756 mmHg 41%
    13:00 +21°C° 0 mm 8 mps 755 mmHg 41%
    14:00 +21°C° 0 mm 9 mps 755 mmHg 40%
    15:00 +18°C° 0 mm 8 mps 755 mmHg 45%
    16:00 +17°C° 0 mm 7 mps 755 mmHg 50%
    17:00 +15°C° 0 mm 7 mps 755 mmHg 55%
    18:00 +15°C° 0.1 mm 7 mps 755 mmHg 55%
    19:00 +15°C° 0.1 mm 8 mps 755 mmHg 55%
    20:00 +13°C° 0.1 mm 8 mps 755 mmHg 54%
    21:00 +13°C° 0.7 mm 8 mps 755 mmHg 61%
    22:00 +13°C° 0.7 mm 9 mps 755 mmHg 68%
    23:00 +13°C° 0.7 mm 9 mps 755 mmHg 74%
    Show more